When you browse on this site, cookies collect data to enhance your experience and personalize the content and advertising you see.
Visit our Privacy Policy to learn more. By continuing to use the site, you agree to this use of cookies and data.
EN

Hourly Weather Larroque

Today, 14 August, Friday

Time Temperature Precipitation Wind Pressure Humidity
00:00 +8°C° 0 mm 2 mps 754 mmHg 62%
01:00 +7°C° 0 mm 2 mps 754 mmHg 66%
02:00 +7°C° 0 mm 2 mps 754 mmHg 67%
03:00 +6°C° 0 mm 2 mps 754 mmHg 69%
04:00 +6°C° 0 mm 2 mps 753 mmHg 72%
05:00 +6°C° 0 mm 2 mps 753 mmHg 74%
06:00 +6°C° 0 mm 2 mps 753 mmHg 75%
07:00 +7°C° 0 mm 2 mps 753 mmHg 75%
08:00 +9°C° 0 mm 3 mps 753 mmHg 75%
09:00 +11°C° 0 mm 3 mps 753 mmHg 71%
10:00 +14°C° 0 mm 3 mps 753 mmHg 67%
11:00 +17°C° 0 mm 3 mps 753 mmHg 63%
12:00 +18°C° 0 mm 3 mps 752 mmHg 65%
13:00 +18°C° 0 mm 2 mps 751 mmHg 68%
14:00 +19°C° 0 mm 2 mps 751 mmHg 70%
15:00 +18°C° 0.1 mm 2 mps 751 mmHg 73%
16:00 +18°C° 0.1 mm 1 mps 751 mmHg 76%
17:00 +18°C° 0.1 mm 1 mps 751 mmHg 79%
18:00 +16°C° 0 mm 1 mps 751 mmHg 80%
19:00 +14°C° 0 mm 1 mps 752 mmHg 80%
20:00 +12°C° 0 mm 0 mps 752 mmHg 81%
21:00 +13°C° 0 mm 1 mps 752 mmHg 82%
22:00 +13°C° 0 mm 2 mps 752 mmHg 83%
23:00 +11°C° 0 mm 3 mps 752 mmHg 83%

Tomorrow, 15 August, Saturday

Time Temperature Precipitation Wind Pressure Humidity
00:00 +10°C° 0 mm 4 mps 753 mmHg 78%
01:00 +8°C° 0 mm 4 mps 753 mmHg 72%
02:00 +7°C° 0 mm 4 mps 753 mmHg 67%
03:00 +6°C° 0 mm 4 mps 753 mmHg 69%
04:00 +5°C° 0 mm 4 mps 753 mmHg 72%
05:00 +4°C° 0 mm 3 mps 753 mmHg 75%
06:00 +5°C° 0 mm 3 mps 754 mmHg 74%
07:00 +6°C° 0 mm 4 mps 755 mmHg 72%
08:00 +6°C° 0 mm 4 mps 755 mmHg 71%
09:00 +8°C° 0 mm 4 mps 756 mmHg 63%
10:00 +11°C° 0 mm 4 mps 756 mmHg 54%
11:00 +13°C° 0 mm 5 mps 756 mmHg 45%
12:00 +14°C° 0 mm 4 mps 756 mmHg 43%
13:00 +15°C° 0 mm 4 mps 756 mmHg 40%
14:00 +16°C° 0 mm 3 mps 755 mmHg 37%
15:00 +14°C° 0 mm 3 mps 756 mmHg 42%
16:00 +13°C° 0 mm 3 mps 756 mmHg 46%
17:00 +12°C° 0 mm 3 mps 756 mmHg 51%
18:00 +10°C° 0 mm 3 mps 757 mmHg 51%
19:00 +9°C° 0 mm 3 mps 757 mmHg 50%
20:00 +7°C° 0 mm 3 mps 758 mmHg 50%
21:00 +7°C° 0 mm 2 mps 758 mmHg 51%
22:00 +7°C° 0 mm 1 mps 758 mmHg 52%
23:00 +7°C° 0 mm 1 mps 758 mmHg 53%

Day after tomorrow, 16 August, Sunday

Time Temperature Precipitation Wind Pressure Humidity
00:00 +6°C° 0 mm 1 mps 758 mmHg 53%
01:00 +6°C° 0 mm 1 mps 758 mmHg 54%
02:00 +6°C° 0 mm 1 mps 758 mmHg 54%
03:00 +5°C° 0 mm 1 mps 758 mmHg 55%
04:00 +5°C° 0 mm 1 mps 758 mmHg 57%
05:00 +4°C° 0 mm 2 mps 758 mmHg 58%
06:00 +5°C° 0 mm 2 mps 759 mmHg 58%
07:00 +5°C° 0 mm 2 mps 759 mmHg 58%
08:00 +6°C° 0 mm 2 mps 759 mmHg 58%
09:00 +8°C° 0 mm 3 mps 759 mmHg 53%
10:00 +11°C° 0 mm 3 mps 759 mmHg 48%
11:00 +13°C° 0 mm 3 mps 758 mmHg 43%
12:00 +14°C° 0 mm 3 mps 758 mmHg 42%
13:00 +15°C° 0 mm 4 mps 757 mmHg 42%
14:00 +17°C° 0 mm 4 mps 756 mmHg 41%
15:00 +16°C° 0 mm 3 mps 756 mmHg 47%
16:00 +14°C° 0 mm 3 mps 756 mmHg 53%
17:00 +14°C° 0 mm 2 mps 755 mmHg 59%
18:00 +13°C° 0 mm 2 mps 756 mmHg 59%
19:00 +10°C° 0 mm 3 mps 756 mmHg 60%
20:00 +9°C° 0 mm 3 mps 756 mmHg 61%
21:00 +8°C° 0 mm 3 mps 756 mmHg 63%
22:00 +8°C° 0 mm 2 mps 756 mmHg 64%
23:00 +7°C° 0 mm 2 mps 757 mmHg 66%

17 August, Monday

Time Temperature Precipitation Wind Pressure Humidity
00:00 +7°C° 0 mm 2 mps 757 mmHg 67%
01:00 +7°C° 0 mm 3 mps 756 mmHg 67%
02:00 +7°C° 0 mm 3 mps 756 mmHg 68%
03:00 +5°C° 0 mm 3 mps 756 mmHg 69%
04:00 +5°C° 0 mm 3 mps 756 mmHg 69%
05:00 +6°C° 0 mm 2 mps 756 mmHg 70%
06:00 +7°C° 0 mm 3 mps 757 mmHg 68%
07:00 +8°C° 0 mm 3 mps 757 mmHg 67%
08:00 +9°C° 0 mm 3 mps 757 mmHg 65%
09:00 +11°C° 0 mm 3 mps 757 mmHg 59%
10:00 +13°C° 0 mm 3 mps 757 mmHg 53%
11:00 +17°C° 0 mm 3 mps 756 mmHg 48%
12:00 +18°C° 0 mm 3 mps 756 mmHg 46%
13:00 +19°C° 0 mm 4 mps 755 mmHg 44%
14:00 +19°C° 0 mm 4 mps 754 mmHg 43%
15:00 +18°C° 0 mm 3 mps 754 mmHg 49%
16:00 +17°C° 0 mm 3 mps 753 mmHg 55%
17:00 +16°C° 0 mm 3 mps 753 mmHg 61%
18:00 +13°C° 0 mm 3 mps 753 mmHg 62%
19:00 +12°C° 0 mm 3 mps 753 mmHg 64%
20:00 +10°C° 0 mm 3 mps 753 mmHg 65%
21:00 +10°C° 0 mm 3 mps 752 mmHg 66%
22:00 +9°C° 0 mm 3 mps 752 mmHg 67%
23:00 +8°C° 0 mm 4 mps 752 mmHg 68%

18 August, Tuesday

Time Temperature Precipitation Wind Pressure Humidity
00:00 +8°C° 0 mm 3 mps 752 mmHg 70%
01:00 +8°C° 0 mm 3 mps 751 mmHg 73%
02:00 +7°C° 0 mm 3 mps 751 mmHg 75%
03:00 +7°C° 0 mm 3 mps 751 mmHg 79%
04:00 +5°C° 0 mm 3 mps 750 mmHg 83%
05:00 +5°C° 0 mm 3 mps 750 mmHg 87%
06:00 +7°C° 0 mm 3 mps 750 mmHg 84%
07:00 +7°C° 0 mm 2 mps 750 mmHg 80%
08:00 +8°C° 0 mm 2 mps 750 mmHg 76%
09:00 +12°C° 0 mm 2 mps 750 mmHg 69%
10:00 +14°C° 0 mm 2 mps 750 mmHg 62%
11:00 +17°C° 0 mm 3 mps 750 mmHg 54%
12:00 +18°C° 0 mm 2 mps 750 mmHg 50%
13:00 +19°C° 0 mm 2 mps 749 mmHg 47%
14:00 +21°C° 0 mm 1 mps 749 mmHg 43%
15:00 +18°C° 0 mm 2 mps 749 mmHg 48%
16:00 +17°C° 0 mm 3 mps 749 mmHg 54%
17:00 +16°C° 0 mm 3 mps 749 mmHg 59%
18:00 +14°C° 0 mm 4 mps 750 mmHg 60%
19:00 +12°C° 0 mm 4 mps 751 mmHg 61%
20:00 +11°C° 0 mm 4 mps 752 mmHg 62%
21:00 +10°C° 0 mm 4 mps 752 mmHg 65%
22:00 +8°C° 0 mm 4 mps 753 mmHg 67%
23:00 +9°C° 0 mm 3 mps 753 mmHg 69%

19 August, Wednesday

Time Temperature Precipitation Wind Pressure Humidity
00:00 +7°C° 0 mm 4 mps 754 mmHg 63%
01:00 +7°C° 0 mm 5 mps 754 mmHg 56%
02:00 +7°C° 0 mm 6 mps 755 mmHg 50%
03:00 +7°C° 0 mm 5 mps 755 mmHg 51%
04:00 +6°C° 0 mm 5 mps 756 mmHg 52%
05:00 +6°C° 0 mm 5 mps 756 mmHg 53%
06:00 +5°C° 0 mm 6 mps 757 mmHg 52%
07:00 +5°C° 0 mm 6 mps 758 mmHg 51%
08:00 +5°C° 0 mm 6 mps 758 mmHg 50%
09:00 +6°C° 0 mm 7 mps 759 mmHg 46%
10:00 +8°C° 0 mm 7 mps 759 mmHg 41%
11:00 +9°C° 0 mm 7 mps 760 mmHg 37%
12:00 +10°C° 0 mm 7 mps 760 mmHg 37%
13:00 +10°C° 0 mm 7 mps 760 mmHg 38%
14:00 +11°C° 0 mm 6 mps 759 mmHg 38%
15:00 +10°C° 0 mm 6 mps 760 mmHg 45%
16:00 +8°C° 0 mm 5 mps 760 mmHg 52%
17:00 +7°C° 0 mm 4 mps 760 mmHg 60%
18:00 +6°C° 0 mm 4 mps 761 mmHg 62%
19:00 +5°C° 0 mm 4 mps 761 mmHg 64%
20:00 +3°C° 0 mm 3 mps 762 mmHg 66%
21:00 +3°C° 0 mm 3 mps 762 mmHg 67%
22:00 +3°C° 0 mm 4 mps 763 mmHg 67%
23:00 +1°C° 0 mm 4 mps 763 mmHg 67%
Show more